This is the latest recevied weather packets stored in our database for station/object N1UNH. If no packets are shown the sender has not sent any weather packets the latest 10 day(s).
| Time | Temp. | Humidity | Pressure | Rain* | Wind** | Luminosity | Snow |
|---|---|---|---|---|---|---|---|
| 1777762034 | 8.89° C | 94% | 1015.9 hPa | 0 mm | - | 11 W/m² | - |
| 1777761731 | 8.89° C | 94% | 1015.8 hPa | 0 mm | - | 8 W/m² | - |
| 1777761428 | 8.89° C | 94% | 1015.7 hPa | 1.78 mm | - | 14 W/m² | - |
| 1777761127 | 8.89° C | 94% | 1015.5 hPa | 1.78 mm | - | 18 W/m² | - |
| 1777760824 | 8.89° C | 94% | 1015.5 hPa | 0 mm | - | 19 W/m² | - |
| 1777760520 | 8.89° C | 94% | 1015.4 hPa | 0 mm | - | 23 W/m² | - |
| 1777760216 | 8.89° C | 94% | 1015.6 hPa | 0 mm | - | 23 W/m² | - |
| 1777759913 | 8.89° C | 94% | 1015.7 hPa | 0 mm | - | 17 W/m² | - |
| 1777759609 | 8.89° C | 94% | 1015.6 hPa | 0 mm | - | 28 W/m² | - |
| 1777759305 | 8.89° C | 94% | 1015.4 hPa | 1.27 mm | - | 47 W/m² | - |
| 1777759003 | 8.89° C | 94% | 1015.5 hPa | 3.05 mm | - | 88 W/m² | - |
| 1777758699 | 8.89° C | 94% | 1015.5 hPa | 3.05 mm | - | 63 W/m² | - |
| 1777758397 | 8.89° C | 93% | 1015.4 hPa | 3.05 mm | - | 26 W/m² | - |
| 1777758095 | 8.89° C | 93% | 1015.7 hPa | 4.83 mm | - | 29 W/m² | - |
| 1777757791 | 8.89° C | 92% | 1015.7 hPa | 4.83 mm | - | 30 W/m² | - |
| 1777757488 | 8.89° C | 92% | 1015.7 hPa | 3.05 mm | - | 30 W/m² | - |
| 1777757187 | 8.89° C | 92% | 1015.6 hPa | 4.32 mm | - | 31 W/m² | - |
| 1777756885 | 9.44° C | 92% | 1015.8 hPa | 4.83 mm | - | 29 W/m² | - |
| 1777756580 | 8.89° C | 92% | 1015.4 hPa | 1.78 mm | - | 32 W/m² | - |
| 1777756278 | 9.44° C | 91% | 1015.4 hPa | 1.27 mm | - | 38 W/m² | - |
| 1777755975 | 9.44° C | 91% | 1015.4 hPa | 1.27 mm | - | 47 W/m² | - |
| 1777755672 | 9.44° C | 91% | 1015.6 hPa | 1.27 mm | - | 61 W/m² | - |
| 1777755368 | 9.44° C | 91% | 1015.7 hPa | 0 mm | - | 65 W/m² | - |
| 1777755066 | 9.44° C | 91% | 1015.3 hPa | 0 mm | - | 77 W/m² | - |
| 1777754762 | 9.44° C | 91% | 1015.4 hPa | 0 mm | - | 93 W/m² | - |
* Rain latest hour (hover to see other rain measurements)
** Current wind speed in m/s (hover to see current wind gust speed)